全球星 M027星 (GLOBALSTAR M027)

导读

GLOBALSTAR M027是美国全球星系统(GlobalStar)第一代低轨移动通信卫星,于1999年8月17日发射。该卫星采用劳拉公司LS-400平台,三轴稳定设计,发射质量约450千克,运行于倾角52°、高度约1414千米的轨道,设计寿命7.5年。作为全球星星座的组成部分,它支持全球数字语音、数据、短信及漫游服务,为地面网络覆盖盲区提供移动通信补充,助力构建全球无缝通信网络。

基本信息
目录编号:
25884
目录名称:
GLOBALSTAR M027
国际标识:
1999-043B
轨道中心:
EARTH
卫星名称:
全球星 M027星
卫星全名:
全球星 M027星 (GLOBALSTAR M027)
卫星状态:
在轨 (已飞行9841 天)
发射日期:
1999-08-17 UTC
国别 :
(GLOB)
星等 :
--
轨道信息
数据来源 国际轨道数据 AOE轨道数据
星历时间 2026-07-27T20:55:48+0800
10小时前
查看轨道信息
2026-07-26T01:00:00+0800
2天前
查看轨道信息
半长轴 8517.737km 8517.729km
偏心率 0.0020921 0.0021151
轨道倾角 52.020° 52.020°
近地点辐角 285.207° 279.947°
升交点赤经 275.472° 279.550°
平近点角 74.641° 359.658°
近地点 2121.78km 2121.576km
远地点 2157.42km 2157.608km
周期 130.391分钟 130.390分钟
每日圈数 11.043747 11.043762
详细信息
固有亮度:
5
最大亮度:
7.9
平衡模式:
三轴稳定
覆盖范围:
全球
运营商:
全球星公司
运营商所在国:
美国
使用方式:
暂无
卫星简介
全球星星座由48颗卫星加8颗备份星组成。这些卫星分布在8个倾角为52度的圆形轨道平面上,每个轨道平面6颗卫星,另有1 颗备用星。轨道高度约为1414km,传输时延和处理时延小于300ms,整个系统的覆盖区为南北纬70度以内的地区。该卫星已退役。
2D轨道图
3D轨道图
轨道高度分析图
轨道倾角分析图
轨道综合分析图
查看轨道综合分析图